sat.trackr.live / text

‹ back to catalog

STARLINK-32961

NORAD 63122 · 2025-039U

PAYLOAD ACTIVE UNKNOWN

§ Identity

Operator
Country
US
Launch date
2025-02-27
Launch site
AFETR
Launch vehicle
Mass (kg)
RCS (m²)

Purposes: comms

External: N2YO · Heavens-Above · Gunter

§ Orbital elements

Epoch: 2026-09-20T06:21:18.665568Z

Period
94.27 min
Inclination
43.0026°
Eccentricity
0.0001220
Mean motion
15.27588127 rev/d
Perigee alt
482.2 km
Apogee alt
483.9 km
Semi-major
6,861.2 km
B*
3.7361e-4
RAAN
353.9987°
Arg perigee
263.4901°
Mean anomaly
96.5812°
Rev number
8,782

§ Raw data

STARLINK-329611 63122U 25039U   26263.26479937  .00010035  00000+0  37361-3 0  99902 63122  43.0026 353.9987 0001220 263.4901  96.5812 15.27588127 87827

JSON: /api/v1/satellites/63122 · /tle

For live sub-satellite position, see the globe view (requires WebGL).

§ Visibility from observer

Set your observer location to see the next 7 days of passes ≥ 10°. The values pass through the URL so the page stays shareable.

No JS? Fill the form by hand. The geolocation button needs JavaScript.